Voltar ao catálogo

STARLINK-2102

AtivoComunicaçõesVLEO
NORAD 47382·PAYLOAD·🇺🇸 United States

Lançado Jan 20, 2021 de Cape Canaveral Space Force Station

Loading…

Próximas Passagens (próximas 24 horas)

TLE

AtualizadoSource: CelesTrak SupGP

Época: Sep 15, 2026, 01:41 UTC

1 47382C 21005AK  26258.07062500 -.00025618  00000+0 -82380-3 0  2580
2 47382  53.1573 225.2059 0001254  87.7028 296.5218 15.31714637    11

Acompanhe STARLINK-2102 em tempo real com AllMySat

Download on the App Store